AirNav   Phillips 66 Aviation Fuel
 
 1446 users online  

6K9 Keosauqua Municipal Airport
Keosauqua, Iowa, USA

GOING TO KEOSAUQUA?


FAA INFORMATION EFFECTIVE 11 OCTOBER 2018

Location

FAA Identifier: 6K9
Lat/Long: 40-44-05.1000N / 091-56-55.6190W
40-44.085000N / 091-56.926983W
40.7347500 / -91.9487831
(estimated)
Elevation: 580 ft. / 177 m (estimated)
Variation: 03E (1985)
From city: 1 mile E of KEOSAUQUA, IA
Time zone: UTC -5 (UTC -6 during Standard Time)
Zip code: 52565

Airport Operations

Airport use: Open to the public
Activation date: 06/1971
Control tower: no
ARTCC: KANSAS CITY CENTER
FSS: FORT DODGE FLIGHT SERVICE STATION
NOTAMs facility: FOD (NOTAM-D service available)
Attendance: UNATNDD
Wind indicator: yes
Segmented circle: no

Airport Communications

CTAF: 122.9
WX AWOS-3 at FFL (19 nm N): 132.025 (641-472-4548)

Nearby radio navigation aids

VOR radial/distance  VOR name  Freq  Var
OTMr130/24.6OTTUMWA VOR/DME111.6006E

 
NDB name  Hdg/Dist  Freq  Var  ID
BLOOMFIELD090/21.926902EBEX -... . -..-
MOUNT PLEASANT237/23.521200WMPZ -- .--. --..
KEOKUK303/28.536602EEOK . --- -.-

Airport Services

Parking: hangars
Airframe service: NONE
Powerplant service: NONE
Bottled oxygen: NONE
Bulk oxygen: NONE

Runway Information

Runway 6/24

Dimensions: 2275 x 100 ft. / 693 x 30 m
Surface: turf, in poor condition
RY 06/24 ROUGH SFC.
Runway edge markings: 06/24 THLDS & EDGES MARKED WITH YELLOW CONES.
RUNWAY 6  RUNWAY 24
Traffic pattern: leftleft
Displaced threshold: 395 ft.1000 ft.
Obstructions: 57 ft. trees, 765 ft. from runway, 60 ft. left of centerline, 13:1 slope to clear
APCH SLOPE 20:1 TO DSPLCD THLD.
74 ft. trees, 485 ft. from runway, 135 ft. right of centerline, 6:1 slope to clear
APCH SLOPE 20:1 TO DSPLCD THLD.

Airport Ownership and Management from official FAA records

Ownership: Publicly-owned
Owner: CITY OF KEOSAUQUA
PO BOX 555
KEOSAUQUA, IA 52565
Phone 319-293-3536
Manager: JIM CHAMBERS
PO BOX 555
KEOSAUQUA, IA 52565
Phone 319-293-3536
PUBLIC WORKS DEPT, NOT AT FIELD.

Airport Operational Statistics

Aircraft based on the field: 1
Single engine airplanes: 1
    
Aircraft operations: avg 25/month *
67% transient general aviation
33% local general aviation
* for 12-month period ending 21 June 2017

Additional Remarks

PUBLIC PHONE AT MAIN HANGER.

Instrument Procedures

There are no published instrument procedures at 6K9.

Some nearby airports with instrument procedures:

KFFL - Fairfield Municipal Airport (19 nm N)
03D - Memphis Memorial Airport (21 nm SW)
4K6 - Bloomfield Municipal Airport (22 nm W)
KMPZ - Mount Pleasant Municipal Airport (24 nm NE)
KFSW - Fort Madison Municipal Airport (29 nm E)
 
Loc | Ops | Rwys | IFR | FBO | Links
Com | Nav | Svcs | Stats | Notes


 
Area around 6K9 (Keosauqua Municipal Airport)
 
Road maps at: MapQuest Bing Google
 
Aerial photo
No photo
 
Sectional chart

 
Airport distance calculator
Flying to Keosauqua Municipal Airport? Find the distance to fly.

From to 6K9

Sunrise and sunset
Times for 18-Oct-2018
 Local
(UTC-5)
 Zulu
(UTC)
Morning civil twilight06:5611:56
Sunrise07:2312:23
Sunset18:2323:23
Evening civil twilight18:5023:50

Current date and time
Zulu (UTC)  18-Oct-2018 19:10:35
Local (UTC-5)  18-Oct-2018 14:10:35
 
METAR
KFFL 
18nm N 
181855Z AUTO 18010KT 10SM CLR 16/02 A3042 RMK AO2 PWINO
KMPZ 
23nm NE 
181855Z AUTO 19008KT 10SM CLR 16/02 A3044 RMK AO2
KFSW 
29nm E 
181855Z AUTO 18005KT 10SM CLR 14/01 A3046 RMK AO2
KEOK 
29nm SE 
181855Z AUTO 17007G12KT 10SM CLR 14/01 A3045 RMK AO2
KOTM 
32nm NW 
181853Z AUTO 18010KT 10SM CLR 16/04 A3041 RMK AO2 SLP302 T01610039
KAWG 
34nm N 
181855Z AUTO 20009G15KT 10SM CLR 16/02 A3043 RMK AO2
TAF
KOTM 
32nm NW 
181726Z 1818/1918 20013KT P6SM SKC FM182300 19008KT P6SM FEW150 FM191000 20007KT P6SM SCT070 BKN120 FM191600 22014G22KT P6SM BKN025
KBRL 
37nm E 
181722Z 1818/1918 21009KT P6SM SKC FM191500 23013G20KT P6SM OVC025 PROB30 1915/1918 6SM -SHRA OVC025
NOTAMs
Click for the latest NOTAMs
NOTAMs are issued by the DoD/FAA and will open in a separate window not controlled by AirNav.

 

 
 

Would you like to see your business listed on this page?

 If your business provides an interesting product or service to pilots, flight crews, aircraft, or users of the Keosauqua Municipal Airport, you should consider listing it here.  To start the listing process, click on the button below
 
Add a business
 

Other Pages about Keosauqua Municipal Airport

Page from the Iowa Airport Directory
 
Update a link
 
Copyright © AirNav, LLC. All rights reserved. Privacy Policy  Contact